Location: Port Colborne
(42.8865°N, 79.2509°W)
Time: 16:44:14
(UTC-04:00)

OTV 5 (USA 277) - Pass Details

Date: 27 August 2019
Orbit: 295 x 339 km, 54.5° (Epoch: 08 September)

Event Time Altitude Azimuth Distance (km) Brightness Sun altitude
Rises 20:40:25 0° 243° (WSW) 2,005 ? -7.8°
Reaches altitude 10° 20:42:25 10° 251° (WSW) 1,176 ? -8.2°
Maximum altitude 20:44:54 42° 325° (NW) 440 ? -8.6°
Drops below altitude 10° 20:47:24 10° 39° (NE) 1,168 ? -9.0°
Sets 20:49:23 0° 47° (NE) 1,990 ? -9.3°
